SB KEPS @ AMSAT $ORB13024.O Orbital Elements 13024.OSCAR
HR AMSAT ORBITAL ELEMENTS FOR OSCAR SATELLITES FROM WA5QGD FORT WORTH,TX January 24, 2013 BID: ORB13024.O TO ALL RADIO AMATEURS BT
Satellite: AO-07 Catalog number: 07530 Epoch time: 13023.89388451 Element set: 589 Inclination: 101.4208 deg RA of node: 018.7045 deg Eccentricity: 0.0011770 Arg of perigee: 209.0058 deg Mean anomaly: 181.9725 deg Mean motion: 12.53594304 rev/day Decay rate: -6.3e-07 rev/day^2 Epoch rev: 74770 Checksum: 295
Satellite: FO-29 Catalog number: 24278 Epoch time: 13024.81257650 Element set: 33 Inclination: 098.5763 deg RA of node: 102.4368 deg Eccentricity: 0.0350526 Arg of perigee: 175.4573 deg Mean anomaly: 184.9887 deg Mean motion: 13.52995619 rev/day Decay rate: -3.6e-07 rev/day^2 Epoch rev: 81192 Checksum: 336
Satellite: SO-33 Catalog number: 25509 Epoch time: 13024.55332575 Element set: 418 Inclination: 031.4310 deg RA of node: 160.7722 deg Eccentricity: 0.0351659 Arg of perigee: 340.5655 deg Mean anomaly: 093.8201 deg Mean motion: 14.28954756 rev/day Decay rate: 2.60e-06 rev/day^2 Epoch rev: 74433 Checksum: 292
Satellite: RS-22 Catalog number: 27939 Epoch time: 13024.55384300 Element set: 108 Inclination: 097.7980 deg RA of node: 219.8949 deg Eccentricity: 0.0012415 Arg of perigee: 285.6780 deg Mean anomaly: 074.3063 deg Mean motion: 14.64302165 rev/day Decay rate: 3.43e-06 rev/day^2 Epoch rev: 49827 Checksum: 317
Satellite: VO-52 Catalog number: 28650 Epoch time: 13024.12543384 Element set: 325 Inclination: 097.5792 deg RA of node: 050.0847 deg Eccentricity: 0.0027080 Arg of perigee: 036.9433 deg Mean anomaly: 323.3585 deg Mean motion: 14.83530247 rev/day Decay rate: 7.14e-06 rev/day^2 Epoch rev: 41772 Checksum: 295
Satellite: HO-68 Catalog number: 36122 Epoch time: 13024.70060363 Element set: 221 Inclination: 100.3289 deg RA of node: 085.2630 deg Eccentricity: 0.0007624 Arg of perigee: 326.0641 deg Mean anomaly: 033.9979 deg Mean motion: 13.16301669 rev/day Decay rate: -4.4e-07 rev/day^2 Epoch rev: 14953 Checksum: 274
/EX SB KEPS @ AMSAT $ORB13024.D Orbital Elements 13024.MICROS
HR AMSAT ORBITAL ELEMENTS FOR THE MICROSATS FROM WA5QGD FORT WORTH,TX January 24, 2013 BID: ORB13024.D TO ALL RADIO AMATEURS BT
Satellite: UO-11 Catalog number: 14781 Epoch time: 13024.72086489 Element set: 84 Inclination: 097.9230 deg RA of node: 087.9609 deg Eccentricity: 0.0009461 Arg of perigee: 043.3909 deg Mean anomaly: 316.8047 deg Mean motion: 14.80736716 rev/day Decay rate: 2.95e-06 rev/day^2 Epoch rev: 55270 Checksum: 323
Satellite: AO-16 Catalog number: 20439 Epoch time: 13024.78473275 Element set: 659 Inclination: 098.4587 deg RA of node: 328.2497 deg Eccentricity: 0.0010360 Arg of perigee: 217.7280 deg Mean anomaly: 174.9390 deg Mean motion: 14.32133494 rev/day Decay rate: 6.5e-07 rev/day^2 Epoch rev: 20171 Checksum: 311
Satellite: LO-19 Catalog number: 20442 Epoch time: 13023.87417101 Element set: 591 Inclination: 098.4265 deg RA of node: 329.6164 deg Eccentricity: 0.0011415 Arg of perigee: 211.4285 deg Mean anomaly: 221.6564 deg Mean motion: 14.32347368 rev/day Decay rate: 7.1e-07 rev/day^2 Epoch rev: 20177 Checksum: 278
Satellite: AO-27 Catalog number: 22825 Epoch time: 13024.78544971 Element set: 297 Inclination: 098.6041 deg RA of node: 330.4472 deg Eccentricity: 0.0008071 Arg of perigee: 357.5070 deg Mean anomaly: 034.8431 deg Mean motion: 14.29528759 rev/day Decay rate: 5.7e-07 rev/day^2 Epoch rev: 814 Checksum: 306
Satellite: IO-26 Catalog number: 22826 Epoch time: 13023.90358654 Element set: 52 Inclination: 098.5980 deg RA of node: 329.8939 deg Eccentricity: 0.0008514 Arg of perigee: 352.7208 deg Mean anomaly: 039.0201 deg Mean motion: 14.29809087 rev/day Decay rate: 6.1e-07 rev/day^2 Epoch rev: 814 Checksum: 305
Satellite: GO-32 Catalog number: 25397 Epoch time: 13023.92705823 Element set: 981 Inclination: 098.3923 deg RA of node: 358.1089 deg Eccentricity: 0.0001532 Arg of perigee: 037.9893 deg Mean anomaly: 322.1378 deg Mean motion: 14.23318475 rev/day Decay rate: -7.1e-07 rev/day^2 Epoch rev: 75542 Checksum: 319
Satellite: NO-44 Catalog number: 26931 Epoch time: 13024.14890658 Element set: 243 Inclination: 067.0519 deg RA of node: 270.8145 deg Eccentricity: 0.0004631 Arg of perigee: 266.2529 deg Mean anomaly: 093.8034 deg Mean motion: 14.29881708 rev/day Decay rate: -1.66e-06 rev/day^2 Epoch rev: 59083 Checksum: 314
Satellite: SO-50 Catalog number: 27607 Epoch time: 13024.36132811 Element set: 975 Inclination: 064.5591 deg RA of node: 341.9328 deg Eccentricity: 0.0064182 Arg of perigee: 202.3061 deg Mean anomaly: 157.5258 deg Mean motion: 14.72744727 rev/day Decay rate: 3.87e-06 rev/day^2 Epoch rev: 54253 Checksum: 303
Satellite: CO-55 Catalog number: 27844 Epoch time: 13023.61051991 Element set: 562 Inclination: 098.7031 deg RA of node: 034.7833 deg Eccentricity: 0.0008747 Arg of perigee: 309.5089 deg Mean anomaly: 198.4563 deg Mean motion: 14.21150687 rev/day Decay rate: 1.40e-06 rev/day^2 Epoch rev: 49619 Checksum: 320
Satellite: CO-57 Catalog number: 27848 Epoch time: 13024.56901672 Element set: 511 Inclination: 098.7117 deg RA of node: 035.1658 deg Eccentricity: 0.0008679 Arg of perigee: 312.7322 deg Mean anomaly: 193.5208 deg Mean motion: 14.20885789 rev/day Decay rate: 1.07e-06 rev/day^2 Epoch rev: 49626 Checksum: 330
Satellite: AO-51 Catalog number: 28375 Epoch time: 13024.86075567 Element set: 469 Inclination: 098.1794 deg RA of node: 346.2239 deg Eccentricity: 0.0084278 Arg of perigee: 089.3248 deg Mean anomaly: 271.7600 deg Mean motion: 14.41059667 rev/day Decay rate: 1.64e-06 rev/day^2 Epoch rev: 45069 Checksum: 345
Satellite: CP3 Catalog number: 31129 Epoch time: 13024.51094135 Element set: 373 Inclination: 097.8869 deg RA of node: 025.3492 deg Eccentricity: 0.0100889 Arg of perigee: 154.0291 deg Mean anomaly: 206.6019 deg Mean motion: 14.53436989 rev/day Decay rate: 2.74e-06 rev/day^2 Epoch rev: 30612 Checksum: 300
Satellite: CO-65 Catalog number: 32785 Epoch time: 13024.74457542 Element set: 534 Inclination: 097.7716 deg RA of node: 086.2625 deg Eccentricity: 0.0015452 Arg of perigee: 061.9187 deg Mean anomaly: 085.6669 deg Mean motion: 14.83549817 rev/day Decay rate: 7.30e-06 rev/day^2 Epoch rev: 25660 Checksum: 340
Satellite: PRISM Catalog number: 33493 Epoch time: 13024.81624430 Element set: 472 Inclination: 098.1962 deg RA of node: 177.2743 deg Eccentricity: 0.0017358 Arg of perigee: 299.8581 deg Mean anomaly: 060.0882 deg Mean motion: 14.85180907 rev/day Decay rate: 2.554e-05 rev/day^2 Epoch rev: 21663 Checksum: 314
Satellite: SOHLA-1 Catalog number: 33496 Epoch time: 13024.53014951 Element set: 950 Inclination: 098.1205 deg RA of node: 141.0746 deg Eccentricity: 0.0007513 Arg of perigee: 066.2054 deg Mean anomaly: 350.4242 deg Mean motion: 14.70174227 rev/day Decay rate: 2.01e-06 rev/day^2 Epoch rev: 21476 Checksum: 253
Satellite: SO-67 Catalog number: 35870 Epoch time: 13024.87249105 Element set: 729 Inclination: 097.2090 deg RA of node: 058.7663 deg Eccentricity: 0.0003669 Arg of perigee: 097.7167 deg Mean anomaly: 027.9570 deg Mean motion: 15.25779474 rev/day Decay rate: 3.320e-05 rev/day^2 Epoch rev: 18639 Checksum: 348
Satellite: TISAT-1 Catalog number: 36799 Epoch time: 13024.74454424 Element set: 744 Inclination: 098.0449 deg RA of node: 108.5997 deg Eccentricity: 0.0014883 Arg of perigee: 169.7746 deg Mean anomaly: 190.3739 deg Mean motion: 14.82801899 rev/day Decay rate: 1.645e-05 rev/day^2 Epoch rev: 13731 Checksum: 353
Satellite: STUDSAT Catalog number: 36801 Epoch time: 13024.82323083 Element set: 576 Inclination: 098.0592 deg RA of node: 110.6557 deg Eccentricity: 0.0012131 Arg of perigee: 154.6098 deg Mean anomaly: 205.5707 deg Mean motion: 14.86759705 rev/day Decay rate: 4.879e-05 rev/day^2 Epoch rev: 13742 Checksum: 305
Satellite: FO-69 Catalog number: 37227 Epoch time: 13024.34423686 Element set: 0046 Inclination: 071.9686 deg RA of node: 183.8383 deg Eccentricity: 0.0018511 Arg of perigee: 267.4168 deg Mean anomaly: 092.4874 deg Mean motion: 14.77351735 rev/day Decay rate: 4.27e-06 rev/day^2 Epoch rev: 00766 Checksum: 332
Satellite: FO-70 Catalog number: 37380 Epoch time: 13024.59074008 Element set: 0050 Inclination: 071.9722 deg RA of node: 184.1352 deg Eccentricity: 0.0019066 Arg of perigee: 264.4596 deg Mean anomaly: 095.4367 deg Mean motion: 14.77094328 rev/day Decay rate: 3.64e-06 rev/day^2 Epoch rev: 00777 Checksum: 309
Satellite: ALMASAT-1 Catalog number: 38078 Epoch time: 13024.82722295 Element set: 944 Inclination: 069.4806 deg RA of node: 171.9046 deg Eccentricity: 0.0723497 Arg of perigee: 329.3412 deg Mean anomaly: 026.7163 deg Mean motion: 14.18357343 rev/day Decay rate: 1.1205e-04 rev/day^2 Epoch rev: 4887 Checksum: 316
Satellite: XATCOBEO Catalog number: 38082 Epoch time: 13024.77555245 Element set: 873 Inclination: 069.4832 deg RA of node: 159.9909 deg Eccentricity: 0.0646802 Arg of perigee: 322.7496 deg Mean anomaly: 033.0350 deg Mean motion: 14.38381121 rev/day Decay rate: 2.8555e-04 rev/day^2 Epoch rev: 4919 Checksum: 323
/EX SB KEPS @ AMSAT $ORB13024.W Orbital Elements 13024.WEATHER
HR AMSAT ORBITAL ELEMENTS FOR WEATHER SATELLITES FROM WA5QGD FORT WORTH,TX January 24, 2013 BID: ORB13024.W TO ALL RADIO AMATEURS BT
Satellite: NOAA-10 Catalog number: 16969 Epoch time: 13024.15487216 Element set: 222 Inclination: 098.5607 deg RA of node: 055.0296 deg Eccentricity: 0.0011210 Arg of perigee: 309.6032 deg Mean anomaly: 080.9402 deg Mean motion: 14.27610937 rev/day Decay rate: 3.5e-07 rev/day^2 Epoch rev: 37139 Checksum: 277
Satellite: NOAA-11 Catalog number: 19531 Epoch time: 13024.48790725 Element set: 217 Inclination: 098.7195 deg RA of node: 110.8654 deg Eccentricity: 0.0010227 Arg of perigee: 314.8094 deg Mean anomaly: 123.0791 deg Mean motion: 14.15000615 rev/day Decay rate: -7.0e-08 rev/day^2 Epoch rev: 25580 Checksum: 274
